Tracking 35237 objects as of 4-Sep-2026
HD Live streaming from Space Station
objects crossing your sky now

ION SCV-016

Track ION SCV-016 now!
10-day predictions
ION SCV-016 is classified as:


NORAD ID: 62628
Int'l Code: 2025-009V
Launch date: January 14, 2025
Source: Italy (IT)
Launch site: AIR FORCE WESTERN TEST RANGE (AFWTR)

Uplink (MHz):
Downlink (MHz): 401.415
Beacon (MHz):
Mode: 1k2 FSK
Call sign:
Status: Active

Your satellite tracking list
Your tracking list is empty




NASA's NSSDC Master Catalog

Two Line Element Set (TLE):
1 62628U 25009V   26247.30990627  .00012943  00000-0  27286-3 0  9994
2 62628  97.4243 276.8631 0575714 215.4662 140.6961 14.53854189 87036
Source of the keplerian elements: AFSPC